[[{"header":{"parameterUnit":"m.s-1","parameterCategory":1,"la1":30.2991,"la2":30.254,"lo1":-89.0895,"lo2":-89.0444,"dy":0.0017,"dx":0.0017,"nx":28,"ny":28,"refTime":"2025-03-30T03:00:00:Z","depth":0,"parameterNumber":2,"parameterNumberName":"U-component_of_WINDS"},"data":[0,0,0,0,0,0,0,0,0,0,0,0,0,0,0,0,0,0,0,0,0,0,0,0,0,0,0,0,0,0,0,0,0,0,0,0,0,0,0,0,0,0,0,0,0,0,0,0,0,0,0,0,0,0,0,0,0,0,-1.2124,-1.2124,0,-1.2162,-1.2162,-1.2163,-1.217,-1.2169,-1.2169,-1.2169,-1.2208,-1.2209,-1.221,0,0,0,0,0,0,0,0,0,0,0,0,0,-1.2057,-1.2058,-1.2124,-1.2124,-1.2125,-1.2162,-1.2162,-1.2163,-1.217,-1.2169,-1.2169,-1.2169,-1.2207,-1.2209,-1.221,0,0,0,0,0,0,0,0,0,0,0,0,0,-1.2089,-1.2058,-1.2124,-1.2133,-1.2134,-1.2162,-1.2162,-1.2163,-1.217,-1.2169,-1.2169,-1.2169,-1.2207,-1.2209,-1.2211,-1.2232,0,0,-1.2217,-1.2218,0,0,0,0,0,0,0,0,-1.2087,-1.2092,-1.2131,-1.2132,-1.2133,-1.2161,-1.2153,-1.2186,-1.217,-1.2156,-1.2169,-1.2168,-1.2192,-1.2196,-1.2204,-1.2234,-1.2236,-1.2217,-1.2218,-1.2219,-1.222,0,0,0,0,0,0,0,-1.2085,-1.209,-1.2139,-1.2131,-1.2133,-1.2135,-1.2139,-1.2159,-1.2176,-1.2157,-1.2158,-1.2162,-1.2193,-1.2202,-1.2205,-1.2236,-1.2217,-1.2219,-1.222,-1.2221,-1.2286,-1.2287,0,0,0,0,0,0,-1.2081,-1.2088,-1.2138,-1.214,-1.2109,-1.2136,-1.2141,-1.2152,-1.2176,-1.2179,-1.2163,-1.2163,-1.2199,-1.2202,-1.2206,-1.2232,-1.2219,-1.2221,-1.2222,-1.2286,-1.2286,-1.2287,0,0,0,0,0,0,-1.208,-1.2086,-1.2136,-1.2114,-1.2121,-1.2138,-1.2151,-1.2153,-1.2162,-1.218,-1.2183,-1.2169,-1.2198,-1.2203,-1.2226,-1.2234,-1.2222,-1.2224,-1.2285,-1.2286,-1.2286,-1.2286,0,0,0,0,0,0,-1.2078,-1.2085,-1.2093,-1.2114,-1.2122,-1.2155,-1.2151,-1.2154,-1.2166,-1.2166,-1.2187,-1.219,-1.2198,-1.2223,-1.2228,-1.2236,-1.2225,-1.2284,-1.2285,-1.2286,-1.2285,-1.2286,-1.2287,0,0,0,0,0,-1.2075,-1.2092,-1.2094,-1.21,-1.2133,-1.2155,-1.216,-1.217,-1.2166,-1.2175,-1.2186,-1.2189,-1.2232,-1.2225,-1.2231,-1.224,-1.2284,-1.2285,-1.2286,-1.2284,-1.2286,-1.2287,0,0,0,0,0,0,-1.2071,-1.2095,-1.2097,-1.2121,-1.2136,-1.2157,-1.2167,-1.2171,-1.2188,-1.2187,-1.2199,-1.2203,-1.2225,-1.2235,-1.2226,-1.2262,-1.2258,-1.226,-1.2255,-1.2256,-1.2257,-1.2254,-1.2227,0,0,0,0,0,-1.2073,-1.209,-1.2109,-1.2128,-1.2136,-1.215,-1.2161,-1.2167,-1.2183,-1.219,-1.2203,-1.2219,-1.2236,-1.2247,-1.2264,-1.2287,-1.2291,-1.2296,-1.2297,-1.2298,-1.23,-1.2313,-1.2315,-1.2291,-1.2291,-1.2291,0,0,-1.2077,-1.2092,-1.2101,-1.2128,-1.214,-1.2157,-1.2156,-1.2173,-1.2186,-1.2192,-1.2214,-1.2224,-1.2243,-1.2265,-1.2276,-1.2274,-1.2308,-1.23,-1.2301,-1.2302,-1.2314,-1.2316,-1.2318,-1.2292,-1.2291,-1.2291,0,0,-1.2092,-1.2105,-1.2122,-1.2135,-1.2154,-1.2164,-1.2168,-1.2188,-1.2195,-1.2217,-1.2222,-1.2237,-1.2267,-1.2279,-1.229,-1.231,-1.2313,-1.2315,-1.2321,-1.2334,-1.2335,-1.2337,-1.2344,-1.2346,-1.2317,-1.2317,-1.2317,0,-1.2095,-1.212,-1.2131,-1.2148,-1.2159,-1.2166,-1.2183,-1.2195,-1.2219,-1.2226,-1.2224,-1.2261,-1.2274,-1.2299,-1.2304,-1.2313,-1.2317,-1.2312,-1.2334,-1.2336,-1.2338,-1.2344,-1.2347,-1.2317,-1.2317,-1.2317,-1.2317,0,-1.2121,-1.2139,-1.215,-1.2173,-1.2185,-1.2202,-1.2216,-1.2227,-1.2233,-1.2242,-1.2265,-1.2281,-1.23,-1.2307,-1.2313,-1.2334,-1.2332,-1.2332,-1.2328,-1.234,-1.2346,-1.2349,-1.2317,-1.2317,-1.2317,-1.2317,0,0,-1.2134,-1.2163,-1.2167,-1.2177,-1.2198,-1.2212,-1.223,-1.2249,-1.2258,-1.2275,-1.2289,-1.2314,-1.2315,-1.2326,-1.2333,-1.2344,-1.2358,-1.2343,-1.2344,-1.2345,-1.2382,-1.2381,-1.2383,-1.2361,-1.2361,-1.2362,-1.238,0,-1.2151,-1.2183,-1.2193,-1.2219,-1.2235,-1.2242,-1.2257,-1.2272,-1.2282,-1.2297,-1.2308,-1.2325,-1.2324,-1.2331,-1.2343,-1.2354,-1.2366,-1.2353,-1.2374,-1.2375,-1.2368,-1.2387,-1.2386,-1.2402,-1.2382,-1.2383,-1.2383,0,-1.2175,-1.2192,-1.2219,-1.2239,-1.2246,-1.2259,-1.2278,-1.2292,-1.2309,-1.2316,-1.2329,-1.2335,-1.2354,-1.2349,-1.2375,-1.2366,-1.2375,-1.2382,-1.2383,-1.2385,-1.2379,-1.2388,-1.2407,-1.241,-1.2387,-1.2387,-1.2387,0,-1.2181,-1.221,-1.223,-1.2239,-1.2262,-1.2271,-1.2282,-1.2298,-1.2309,-1.2326,-1.2333,-1.2352,-1.2361,-1.2376,-1.2387,-1.2382,-1.2411,-1.2407,-1.2416,-1.2416,-1.2421,-1.242,-1.2441,-1.2429,-1.2429,-1.2429,-1.2428,0,-1.2198,-1.2215,-1.2233,-1.2245,-1.2263,-1.2275,-1.2293,-1.2304,-1.2319,-1.2333,-1.2341,-1.2354,-1.2368,-1.2384,-1.2393,-1.2412,-1.2417,-1.2422,-1.2424,-1.2421,-1.242,-1.2426,-1.2425,-1.2429,-1.2429,-1.2429,-1.2429,0,-1.2207,-1.222,-1.2242,-1.2263,-1.2268,-1.2281,-1.2298,-1.2311,-1.2321,-1.2339,-1.2344,-1.236,-1.2379,-1.2391,-1.2415,-1.2421,-1.2442,-1.2444,-1.2436,-1.2436,-1.2444,-1.2443,-1.2469,-1.2473,-1.2459,-1.2459,-1.2459,0,-1.2217,-1.223,-1.2252,-1.2262,-1.2272,-1.2288,-1.2299,-1.2312,-1.2323,-1.2344,-1.2353,-1.2372,-1.2388,-1.2417,-1.2431,-1.2449,-1.2451,-1.2459,-1.2454,-1.245,-1.245,-1.2449,-1.245,-1.246,-1.246,-1.246,-1.246,0,-1.2233,-1.2239,-1.2255,-1.2273,-1.2286,-1.2301,-1.2316,-1.2324,-1.2339,-1.2352,-1.237,-1.2382,-1.2407,-1.2425,-1.2444,-1.2455,-1.246,-1.2462,-1.2464,-1.2461,-1.2455,-1.2458,-1.2437,-1.2461,-1.2461,-1.246,-1.246,-1.246,-1.2242,-1.2253,-1.227,-1.2288,-1.2301,-1.2314,-1.2327,-1.2339,-1.2355,-1.2375,-1.2382,-1.2401,-1.2418,-1.2444,-1.2455,-1.2471,-1.247,-1.2474,-1.2475,-1.2476,-1.2475,-1.2453,-1.2474,-1.2474,-1.2474,-1.2474,-1.2474,0,-1.2257,-1.2269,-1.2285,-1.2305,-1.2319,-1.2323,-1.234,-1.2351,-1.2368,-1.2383,-1.2399,-1.242,-1.2438,-1.2454,-1.2472,-1.2482,-1.2484,-1.2486,-1.2485,-1.2487,-1.2475,-1.247,-1.2483,-1.2483,-1.2483,-1.2483,-1.2483,-1.2483,-1.2267,-1.2286,-1.2294,-1.232,-1.2331,-1.235,-1.2359,-1.2372,-1.2384,-1.2408,-1.2423,-1.2433,-1.2448,-1.2468,-1.2485,-1.2489,-1.2495,-1.2496,-1.2501,-1.2489,-1.2488,-1.2487,-1.2483,-1.2498,-1.2498,-1.2512,-1.2512,-1.2512]},{"header":{"parameterUnit":"m.s-1","parameterCategory":1,"la1":30.2991,"la2":30.254,"lo1":-89.0895,"lo2":-89.0444,"dy":0.0017,"dx":0.0017,"nx":28,"ny":28,"refTime":"2025-03-30T03:00:00:Z","depth":0,"parameterNumber":3,"parameterNumberName":"V-component_of_WINDS"},"data":[0,0,0,0,0,0,0,0,0,0,0,0,0,0,0,0,0,0,0,0,0,0,0,0,0,0,0,0,0,0,0,0,0,0,0,0,0,0,0,0,0,0,0,0,0,0,0,0,0,0,0,0,0,0,0,0,0,0,4.9444,4.9445,0,4.9555,4.9556,4.9558,4.9564,4.9563,4.9562,4.956,4.9671,4.9675,4.9679,0,0,0,0,0,0,0,0,0,0,0,0,0,4.9235,4.9239,4.9444,4.9445,4.9446,4.9555,4.9556,4.9558,4.9564,4.9563,4.9561,4.956,4.967,4.9675,4.968,0,0,0,0,0,0,0,0,0,0,0,0,0,4.9334,4.924,4.9443,4.9463,4.9466,4.9555,4.9556,4.9558,4.9565,4.9563,4.9561,4.9559,4.9668,4.9674,4.9681,4.9757,0,0,4.9699,4.9702,0,0,0,0,0,0,0,0,4.9328,4.9341,4.9458,4.9462,4.9465,4.9544,4.9523,4.9625,4.9565,4.9527,4.956,4.9558,4.963,4.9639,4.9664,4.9762,4.9767,4.97,4.9704,4.9706,4.9708,0,0,0,0,0,0,0,4.9321,4.9337,4.9488,4.946,4.9464,4.9465,4.9477,4.9543,4.9588,4.953,4.9531,4.9544,4.9632,4.9658,4.9667,4.9768,4.97,4.9705,4.9709,4.9712,4.9936,4.9939,0,0,0,0,0,0,4.9311,4.9331,4.9484,4.9491,4.9391,4.9471,4.9484,4.952,4.9587,4.9596,4.9546,4.9544,4.9649,4.966,4.9671,4.9767,4.9706,4.9712,4.9716,4.9934,4.9937,4.9939,0,0,0,0,0,0,4.9306,4.9325,4.948,4.9411,4.9431,4.9476,4.9517,4.9524,4.955,4.9599,4.9607,4.9565,4.9648,4.9662,4.9736,4.9771,4.9715,4.9721,4.9932,4.9935,4.9938,4.9958,0,0,0,0,0,0,4.93,4.9323,4.9353,4.9412,4.9435,4.9543,4.9519,4.9527,4.9562,4.956,4.9619,4.9627,4.9647,4.9727,4.9742,4.9778,4.9725,4.9929,4.9933,4.9937,4.9954,4.9961,4.9967,0,0,0,0,0,4.9293,4.9352,4.9354,4.9372,4.9473,4.9545,4.9558,4.9582,4.9564,4.9595,4.9626,4.9625,4.9764,4.9734,4.9752,4.979,4.9927,4.9932,4.9937,4.9951,4.996,4.9967,0,0,0,0,0,0,4.9294,4.936,4.9363,4.9443,4.9489,4.9546,4.9585,4.959,4.964,4.9637,4.9663,4.9676,4.975,4.9777,4.9743,4.9869,4.9843,4.9852,4.9848,4.9857,4.9863,4.9856,4.9731,0,0,0,0,0,4.9304,4.9358,4.9413,4.9478,4.9501,4.9539,4.9572,4.9586,4.9634,4.9653,4.9689,4.9735,4.9789,4.9824,4.9876,4.9958,4.9971,4.9993,4.9999,5.0004,5.0012,5.0059,5.007,4.9956,4.9956,4.9956,0,0,4.9325,4.9368,4.94,4.948,4.9517,4.9572,4.9555,4.9614,4.9656,4.9661,4.9734,4.9763,4.9815,4.9894,4.993,4.9919,5.0047,5.0011,5.0015,5.002,5.0066,5.0076,5.0086,4.996,4.9959,4.9958,0,0,4.9391,4.9428,4.9489,4.9527,4.9583,4.9609,4.9623,4.968,4.97,4.9774,4.978,4.9829,4.9921,4.996,4.9991,5.0074,5.0076,5.009,5.0125,5.0171,5.018,5.0188,5.022,5.023,5.0097,5.0097,5.0097,0,4.941,4.9494,4.9519,4.9579,4.9614,4.9623,4.9685,4.972,4.979,4.9814,4.9801,4.9919,4.9954,5.0043,5.0064,5.0088,5.0106,5.0084,5.0177,5.0185,5.0193,5.0224,5.0235,5.0099,5.0099,5.0099,5.0098,0,4.9515,4.9574,4.9615,4.9686,4.9725,4.9786,4.9819,4.9857,4.9867,4.9894,4.997,5.0014,5.0076,5.0098,5.0108,5.0189,5.0181,5.0171,5.0147,5.0205,5.0234,5.0246,5.0101,5.0101,5.01,5.01,0,0,4.9586,4.967,4.9685,4.9718,4.9782,4.9828,4.9888,4.9951,4.9984,5.0032,5.0084,5.0163,5.0156,5.0192,5.0206,5.0246,5.0312,5.0233,5.0234,5.0248,5.0406,5.0414,5.0427,5.0313,5.0315,5.0317,5.0402,0,4.9661,4.9771,4.9796,4.989,4.9946,4.9956,5.0009,5.0054,5.008,5.0131,5.016,5.0216,5.0201,5.0224,5.0263,5.0296,5.0344,5.0289,5.0363,5.0365,5.0352,5.0442,5.045,5.0529,5.0414,5.0416,5.0417,0,4.9764,4.9817,4.9918,4.9977,5.0001,5.0048,5.0109,5.0157,5.0208,5.0225,5.0266,5.0277,5.0341,5.0312,5.0402,5.0364,5.0395,5.0415,5.0419,5.0428,5.0396,5.0456,5.0554,5.0567,5.0435,5.0433,5.0432,0,4.9808,4.9904,4.9978,5.0005,5.0075,5.0109,5.0139,5.0189,5.0226,5.0278,5.0303,5.0361,5.0393,5.0438,5.0465,5.0441,5.0553,5.0526,5.0569,5.0569,5.0594,5.0592,5.0701,5.061,5.061,5.061,5.061,0,4.9891,4.9953,4.9999,5.0045,5.0115,5.0142,5.021,5.024,5.0285,5.0336,5.0347,5.0395,5.0426,5.0479,5.05,5.0572,5.0585,5.0601,5.0606,5.0602,5.06,5.0624,5.062,5.0613,5.0612,5.0612,5.0611,0,4.9953,4.9986,5.0067,5.0128,5.0144,5.0193,5.0245,5.0289,5.0316,5.0382,5.0398,5.0441,5.0503,5.0534,5.0611,5.0625,5.0707,5.0708,5.0691,5.0693,5.0736,5.0732,5.0865,5.0885,5.0779,5.078,5.0781,0,5.0004,5.0053,5.0119,5.0155,5.0187,5.0244,5.0282,5.0311,5.035,5.0414,5.0451,5.0514,5.0567,5.0666,5.0704,5.0763,5.0766,5.0809,5.0775,5.077,5.077,5.0768,5.0774,5.0815,5.0816,5.0817,5.0818,0,5.0093,5.0108,5.0163,5.0225,5.0271,5.0321,5.037,5.0398,5.0435,5.0478,5.0544,5.0584,5.0664,5.0728,5.079,5.0821,5.0826,5.0828,5.0842,5.0838,5.0827,5.0836,5.071,5.0825,5.0824,5.0824,5.0823,5.0823,5.0153,5.0198,5.0252,5.0314,5.0354,5.04,5.0446,5.0479,5.0534,5.0603,5.0616,5.0685,5.0737,5.0822,5.0855,5.091,5.09,5.0919,5.0924,5.0929,5.0933,5.0817,5.0921,5.092,5.092,5.092,5.092,0,5.0245,5.0281,5.0338,5.0407,5.0456,5.0457,5.0511,5.0552,5.0614,5.0662,5.0714,5.079,5.0851,5.0894,5.0957,5.0993,5.0997,5.1009,5.1007,5.1015,5.0936,5.092,5.1005,5.1005,5.1004,5.1004,5.1004,5.1004,5.0299,5.0375,5.0396,5.0492,5.0527,5.0597,5.0628,5.0671,5.071,5.0794,5.0847,5.0874,5.0921,5.0988,5.1045,5.1056,5.1079,5.1091,5.1103,5.1029,5.102,5.1012,5.0996,5.1096,5.1096,5.1177,5.1178,5.1178]}]]